Retour au catalogue

CZ-6A DEB

ActifSSO
NORAD 54416·DEBRIS·🇨🇳 China

Lancé Nov 11, 2022 depuis Taiyuan Satellite Launch Center

Loading…

Prochains Passages (prochaines 24 heures)

TLE

FraisSource: Space-Track

Époque: Sep 14, 2026, 07:04 UTC

1 54416U 22151EQ  26257.29488005  .00000383  00000-0  34658-3 0  9992
2 54416  98.9364 199.9548 0174602 267.7557  90.3598 13.83007261193463

Suivez CZ-6A DEB en temps réel avec AllMySat

Download on the App Store